Погода в Верхнем Рогачике

Украина / Херсонская область     47°14′29″N   34°21′36″E
темп.,
°C
ветер,
м/с
пор.,
м/с
влажн.,
%
обл.,
%
осадки,
мм/ч
давл.,
гПа
погр.,
м
20 мая, пт
пт2000:00+14зсз4760100 0.0 1020159
03:00+12зсз467363 0.0 102087
06:00+11зсз478083 0.0 1020171
09:00+16сз575251 0.0 1021666
12:00+20сз684399 0.0 10211476
15:00+22сз5743100 0.0 10192371
18:00+19сз465795 0.0 1019585
21:00+17юз2262100 0.0 101915
21 мая, сб
сб2100:00+15юз51060100 0.0 1017278
03:00+14юз7136699 0.0 1016323
06:00+14юз6138120 0.0 1014318
09:00+20зюз8126297 0.0 1013565
12:00+24зюз9124694 0.0 10111440
15:00+25зюз91145100 0.0 10101595
18:00+22юз71356100 0.0 1009551
21:00+19юз71266100 0.0 1009451
22 мая, вс
вс2200:00+17зюз61385100 0.6 1008450
03:00+17зсз6107624 1.4 1007442
06:00+13зсз588092 0.0 1007318
09:00+16зсз6862100 0.0 1006830
12:00+20зсз7104645 0.0 10052076
15:00+18сз6952100 0.0 1003531
18:00+17зсз8116183 0.8 10031002
21:00+12сз7117599 0.9 1005507
23 мая, пн
пн2300:00+11зсз6980100 0.1 1005740
03:00+11зсз5883100 0.4 1004582
06:00+11зсз5785100 0.4 1005478
09:00+12ссз6780100 1.5 1005716
12:00+15ссз6666100 0.9 10061086
15:00+14ссв5672100 2.4 1007862
18:00+12ссв477695 0.8 1008400
21:00+11ссв487976 0.9 1010157
24 мая, вт
вт2400:00+9св488456 0.1 1011134
03:00+8ссв358575 0.3 101380
06:00+9ссв37835 0.1 1014154
09:00+14ссв57510 0.1 10151186
12:00+16с564275 0.0 10152377
15:00+16с3441100 0.0 10162033
18:00+16ссз3444100 0.0 10171623
21:00+12зсз225397 0.0 101812